When you browse on this site, cookies collect data to enhance your experience and personalize the content and advertising you see.
Visit our Privacy Policy to learn more. By continuing to use the site, you agree to this use of cookies and data.
  • In Belgien
  • Länderverzeichnis
  • Für 7 Tage
  • Wassertemperatur
  • Satellitenkarten
  • Wetterkarte
  • Widgets
  • user-avatar
    Anmelden

    Stündliche Wetter Vranic

    Heute, 18 November, Sonntag

    Zeit Temperatur Niederschläge Wind Luftdruck Luftfeuchtigkeit
    00:00 0°C° 0 mm 3 m/S 756 mmHg 70%
    01:00 0°C° 0 mm 3 m/S 755 mmHg 71%
    02:00 0°C° 0.1 mm 3 m/S 755 mmHg 71%
    03:00 0°C° 0.1 mm 3 m/S 755 mmHg 71%
    04:00 0°C° 0.1 mm 3 m/S 754 mmHg 72%
    05:00 0°C° 0 mm 3 m/S 754 mmHg 71%
    06:00 0°C° 0 mm 3 m/S 754 mmHg 71%
    07:00 0°C° 0 mm 3 m/S 754 mmHg 70%
    08:00 +1°C° 0 mm 3 m/S 753 mmHg 68%
    09:00 +1°C° 0 mm 3 m/S 753 mmHg 66%
    10:00 +1°C° 0 mm 4 m/S 753 mmHg 64%
    11:00 +3°C° 0 mm 4 m/S 752 mmHg 63%
    12:00 +3°C° 0 mm 4 m/S 751 mmHg 61%
    13:00 +4°C° 0 mm 3 m/S 750 mmHg 60%
    14:00 +4°C° 0 mm 3 m/S 750 mmHg 61%
    15:00 +3°C° 0 mm 3 m/S 749 mmHg 62%
    16:00 +4°C° 0 mm 2 m/S 749 mmHg 64%
    17:00 +3°C° 0.1 mm 3 m/S 748 mmHg 66%
    18:00 +3°C° 0.1 mm 3 m/S 748 mmHg 69%
    19:00 +2°C° 0.1 mm 3 m/S 748 mmHg 72%
    20:00 +2°C° 0.4 mm 3 m/S 747 mmHg 76%
    21:00 +3°C° 0.4 mm 2 m/S 747 mmHg 79%
    22:00 +2°C° 0.4 mm 2 m/S 747 mmHg 82%
    23:00 +2°C° 0.4 mm 2 m/S 746 mmHg 84%

    Morgen, 19 November, Montag

    Zeit Temperatur Niederschläge Wind Luftdruck Luftfeuchtigkeit
    00:00 +2°C° 0.4 mm 2 m/S 746 mmHg 86%
    01:00 +2°C° 0.4 mm 2 m/S 746 mmHg 88%
    02:00 +2°C° 0.3 mm 2 m/S 745 mmHg 89%
    03:00 +3°C° 0.3 mm 1 m/S 745 mmHg 90%
    04:00 +3°C° 0.3 mm 1 m/S 745 mmHg 91%
    05:00 +3°C° 0.2 mm 1 m/S 745 mmHg 92%
    06:00 +3°C° 0.2 mm 1 m/S 745 mmHg 92%
    07:00 +3°C° 0.2 mm 1 m/S 745 mmHg 93%
    08:00 +3°C° 0 mm 1 m/S 745 mmHg 90%
    09:00 +4°C° 0 mm 1 m/S 745 mmHg 87%
    10:00 +4°C° 0 mm 1 m/S 746 mmHg 85%
    11:00 +5°C° 0 mm 1 m/S 745 mmHg 81%
    12:00 +5°C° 0 mm 1 m/S 745 mmHg 78%
    13:00 +6°C° 0 mm 1 m/S 745 mmHg 74%
    14:00 +5°C° 0 mm 1 m/S 746 mmHg 77%
    15:00 +5°C° 0 mm 1 m/S 746 mmHg 80%
    16:00 +4°C° 0 mm 1 m/S 746 mmHg 83%
    17:00 +4°C° 0 mm 1 m/S 746 mmHg 85%
    18:00 +3°C° 0 mm 2 m/S 746 mmHg 86%
    19:00 +3°C° 0 mm 2 m/S 747 mmHg 87%
    20:00 +3°C° 0 mm 2 m/S 747 mmHg 87%
    21:00 +3°C° 0 mm 2 m/S 746 mmHg 86%
    22:00 +3°C° 0 mm 2 m/S 746 mmHg 86%
    23:00 +2°C° 0 mm 3 m/S 746 mmHg 84%

    übermorgen, 20 November, Dienstag

    Zeit Temperatur Niederschläge Wind Luftdruck Luftfeuchtigkeit
    00:00 +2°C° 0 mm 3 m/S 745 mmHg 82%
    01:00 +1°C° 0 mm 4 m/S 745 mmHg 81%
    02:00 +1°C° 0 mm 5 m/S 744 mmHg 79%
    03:00 +2°C° 0 mm 5 m/S 744 mmHg 77%
    04:00 +2°C° 0 mm 6 m/S 743 mmHg 75%
    05:00 +2°C° 0.1 mm 7 m/S 743 mmHg 76%
    06:00 +2°C° 0.1 mm 7 m/S 743 mmHg 77%
    07:00 +2°C° 0.1 mm 8 m/S 743 mmHg 78%
    08:00 +2°C° 0.2 mm 8 m/S 743 mmHg 77%
    09:00 +4°C° 0.2 mm 8 m/S 743 mmHg 76%
    10:00 +5°C° 0.2 mm 9 m/S 743 mmHg 75%
    11:00 +5°C° 0.4 mm 9 m/S 742 mmHg 73%
    12:00 +6°C° 0.4 mm 9 m/S 742 mmHg 72%
    13:00 +6°C° 0.4 mm 9 m/S 742 mmHg 71%
    14:00 +6°C° 0 mm 8 m/S 742 mmHg 73%
    15:00 +6°C° 0 mm 7 m/S 742 mmHg 75%
    16:00 +6°C° 0 mm 7 m/S 742 mmHg 77%
    17:00 +6°C° 0.1 mm 7 m/S 742 mmHg 79%
    18:00 +5°C° 0.1 mm 6 m/S 743 mmHg 80%
    19:00 +5°C° 0.1 mm 6 m/S 743 mmHg 82%
    20:00 +5°C° 0.1 mm 6 m/S 743 mmHg 83%
    21:00 +6°C° 0.1 mm 5 m/S 743 mmHg 83%
    22:00 +6°C° 0.1 mm 5 m/S 744 mmHg 83%
    23:00 +6°C° 0 mm 5 m/S 744 mmHg 84%

    21 November, Mittwoch

    Zeit Temperatur Niederschläge Wind Luftdruck Luftfeuchtigkeit
    00:00 +6°C° 0 mm 4 m/S 744 mmHg 85%
    01:00 +6°C° 0 mm 4 m/S 744 mmHg 86%
    02:00 +5°C° 0 mm 3 m/S 744 mmHg 87%
    03:00 +5°C° 0 mm 3 m/S 743 mmHg 87%
    04:00 +5°C° 0 mm 3 m/S 743 mmHg 88%
    05:00 +6°C° 0 mm 2 m/S 744 mmHg 88%
    06:00 +6°C° 0 mm 2 m/S 744 mmHg 88%
    07:00 +5°C° 0 mm 2 m/S 744 mmHg 88%
    08:00 +6°C° 0 mm 2 m/S 745 mmHg 84%
    09:00 +7°C° 0 mm 2 m/S 745 mmHg 81%
    10:00 +8°C° 0 mm 2 m/S 745 mmHg 77%
    11:00 +8°C° 0 mm 2 m/S 745 mmHg 75%
    12:00 +9°C° 0 mm 2 m/S 745 mmHg 74%
    13:00 +9°C° 0 mm 2 m/S 745 mmHg 73%
    14:00 +10°C° 0.1 mm 1 m/S 745 mmHg 75%
    15:00 +9°C° 0.1 mm 1 m/S 746 mmHg 78%
    16:00 +9°C° 0.1 mm 1 m/S 746 mmHg 81%
    17:00 +9°C° 0.2 mm 1 m/S 746 mmHg 82%
    18:00 +9°C° 0.2 mm 1 m/S 747 mmHg 84%
    19:00 +8°C° 0.2 mm 1 m/S 747 mmHg 85%
    20:00 +8°C° 0.1 mm 1 m/S 748 mmHg 86%
    21:00 +8°C° 0.1 mm 1 m/S 748 mmHg 87%
    22:00 +8°C° 0.1 mm 1 m/S 748 mmHg 88%
    23:00 +8°C° 0.2 mm 1 m/S 748 mmHg 88%

    22 November, Donnerstag

    Zeit Temperatur Niederschläge Wind Luftdruck Luftfeuchtigkeit
    00:00 +8°C° 0.2 mm 1 m/S 748 mmHg 89%
    01:00 +7°C° 0.2 mm 1 m/S 748 mmHg 89%
    02:00 +7°C° 0.2 mm 1 m/S 748 mmHg 89%
    03:00 +7°C° 0.2 mm 1 m/S 748 mmHg 90%
    04:00 +7°C° 0.2 mm 1 m/S 748 mmHg 90%
    05:00 +7°C° 0.1 mm 1 m/S 749 mmHg 90%
    06:00 +6°C° 0.1 mm 2 m/S 749 mmHg 90%
    07:00 +6°C° 0.1 mm 2 m/S 749 mmHg 90%
    08:00 +7°C° 0.1 mm 2 m/S 750 mmHg 85%
    09:00 +8°C° 0.1 mm 2 m/S 750 mmHg 80%
    10:00 +9°C° 0.1 mm 3 m/S 750 mmHg 75%
    11:00 +10°C° 0 mm 3 m/S 750 mmHg 71%
    12:00 +10°C° 0 mm 3 m/S 750 mmHg 67%
    13:00 +11°C° 0 mm 3 m/S 750 mmHg 64%
    14:00 +10°C° 0 mm 3 m/S 750 mmHg 67%
    15:00 +10°C° 0 mm 3 m/S 750 mmHg 70%
    16:00 +9°C° 0 mm 3 m/S 751 mmHg 74%
    17:00 +8°C° 0 mm 3 m/S 751 mmHg 76%
    18:00 +7°C° 0 mm 3 m/S 752 mmHg 78%
    19:00 +7°C° 0 mm 3 m/S 752 mmHg 80%
    20:00 +7°C° 0 mm 3 m/S 752 mmHg 80%
    21:00 +5°C° 0 mm 3 m/S 753 mmHg 81%
    22:00 +5°C° 0 mm 3 m/S 753 mmHg 82%
    23:00 +5°C° 0 mm 3 m/S 753 mmHg 82%

    23 November, Freitag

    Zeit Temperatur Niederschläge Wind Luftdruck Luftfeuchtigkeit
    00:00 +5°C° 0 mm 3 m/S 753 mmHg 83%
    01:00 +5°C° 0 mm 2 m/S 753 mmHg 83%
    02:00 +5°C° 0 mm 2 m/S 754 mmHg 84%
    03:00 +5°C° 0 mm 2 m/S 754 mmHg 84%
    04:00 +5°C° 0 mm 2 m/S 754 mmHg 85%
    05:00 +5°C° 0 mm 2 m/S 754 mmHg 85%
    06:00 +4°C° 0 mm 2 m/S 755 mmHg 86%
    07:00 +4°C° 0 mm 2 m/S 755 mmHg 86%
    08:00 +5°C° 0 mm 3 m/S 755 mmHg 80%
    09:00 +7°C° 0 mm 3 m/S 756 mmHg 73%
    10:00 +8°C° 0 mm 3 m/S 756 mmHg 66%
    11:00 +9°C° 0 mm 3 m/S 756 mmHg 63%
    12:00 +10°C° 0 mm 3 m/S 755 mmHg 60%
    13:00 +11°C° 0 mm 3 m/S 755 mmHg 57%
    14:00 +10°C° 0 mm 3 m/S 755 mmHg 61%
    15:00 +9°C° 0 mm 3 m/S 755 mmHg 65%
    16:00 +8°C° 0 mm 3 m/S 755 mmHg 69%
    17:00 +7°C° 0 mm 3 m/S 755 mmHg 72%
    18:00 +5°C° 0 mm 3 m/S 755 mmHg 75%
    19:00 +5°C° 0 mm 3 m/S 755 mmHg 77%
    20:00 +4°C° 0 mm 3 m/S 755 mmHg 78%
    21:00 +4°C° 0 mm 3 m/S 755 mmHg 79%
    22:00 +4°C° 0 mm 3 m/S 755 mmHg 80%
    23:00 +4°C° 0 mm 3 m/S 755 mmHg 81%
    Mehr zeigen